Flag for Germany Weather past 2 weeks in Königs Wusterhausen, Brandenburg, Germany

Now
59 °F

Clear.


Feels Like: 60 °F
Forecast: 67 / 92 °F
Wind: 3 mph from Northeast

Location: Berlin-Schoenefeld

Current Time: Aug 3, 2015 at 5:47:49 AM

Latest Report: Aug 3, 2015 at 4:50 AM


Visibility: 10 mi

Pressure: 30.09 "Hg

Humidity: 77%

Dew point: 52 °F

Location of Königs WusterhausenLocation

Historic Weather in Königs Wusterhausen — Graph

°F

Königs Wusterhausen temperature yesterday

Maximum temperature yesterday: 86 °F (at 3:20 PM)
Minimum temperature yesterday: 55 °F (at 4:50 AM)
Average temperature yesterday: 73 °F

Past Weeks' High & Low Weather Summary

 TemperatureHumidityPressure
High86 °F (Jul 22, 6:50 PM)100% (Jul 19, 12:50 PM)30.12 "Hg (Jul 19, 12:50 PM)
Low45 °F (Aug 1, 2:50 AM)19% (Aug 2, 6:20 PM)29.53 "Hg (Jul 25, 6:50 AM)
Average66 °F63%29.86 "Hg
* Reported Jul 19 4:20 AM — Aug 3 4:20 AM, Königs Wusterhausen, Weather by CustomWeather, © 2015

Note: Actual official high and low records may vary slightly from our data, if they occured in-between our weather recording intervals... More about our weather records

Advertising

Königs Wusterhausen weather history for previous 24 hours

 ConditionsComfort  
Time TempWeatherWind HumidityBarometerVisibility
4:20 AM
Mon, Aug 3
59 °FClear.3 mph72%30.09 "Hg10 mi
3:50 AM61 °FClear.3 mph72%30.09 "Hg10 mi
3:20 AM61 °FClear.5 mph72%30.09 "Hg10 mi
2:50 AM63 °FClear.5 mph68%30.09 "Hg10 mi
2:20 AM63 °FClear.6 mph68%30.09 "Hg10 mi
1:50 AM64 °FClear.7 mph64%30.09 "Hg10 mi
1:20 AM64 °FClear.7 mph64%30.09 "Hg10 mi
12:50 AM66 °FClear.9 mph60%30.12 "Hg10 mi
12:20 AM68 °FClear.10 mph60%30.12 "Hg10 mi
11:20 PM
Sun, Aug 2
72 °FClear.7 mph47%30.09 "Hg10 mi
10:50 PM70 °FPassing clouds.5 mph46%30.09 "HgN/A
10:20 PM73 °FClear.7 mph41%30.09 "Hg10 mi
9:50 PM75 °FSunny.6 mph36%30.09 "Hg10 mi
9:20 PM77 °FSunny.6 mph34%30.09 "Hg10 mi
8:50 PM77 °FSunny.8 mph34%30.07 "Hg10 mi
8:20 PM79 °FSunny.9 mph32%30.07 "Hg10 mi
7:50 PM82 °FSunny.8 mph26%30.07 "Hg10 mi
7:20 PM82 °FSunny.8 mph25%30.07 "Hg10 mi
6:50 PM82 °FPassing clouds.7 mph25%30.07 "HgN/A
6:20 PM84 °FPassing clouds.6 mph19%30.07 "HgN/A
5:50 PM84 °FPassing clouds.6 mph20%30.07 "HgN/A
5:20 PM84 °FPassing clouds.7 mph20%30.07 "HgN/A
4:50 PM86 °FPassing clouds.8 mph20%30.07 "HgN/A
4:20 PM86 °FPassing clouds.8 mph20%30.07 "HgN/A
3:50 PM86 °FSunny.9 mph20%30.07 "Hg10 mi
3:20 PM86 °FSunny.6 mph22%30.07 "Hg10 mi
2:50 PM84 °FSunny.7 mph23%30.07 "Hg10 mi
2:20 PM84 °FSunny.5 mph22%30.09 "Hg10 mi
1:50 PM84 °FSunny.5 mph23%30.09 "Hg10 mi
1:20 PM84 °FSunny.5 mph23%30.09 "Hg10 mi
12:50 PM84 °FSunny.7 mph25%30.09 "Hg10 mi
12:20 PM82 °FPassing clouds.7 mph26%30.09 "HgN/A
11:50 AM82 °FPassing clouds.7 mph25%30.09 "HgN/A
11:20 AM81 °FPassing clouds.7 mph28%30.09 "HgN/A
10:50 AM79 °FPassing clouds.7 mph32%30.09 "HgN/A
10:20 AM77 °FPassing clouds.6 mph39%30.07 "HgN/A
9:50 AM75 °FPassing clouds.3 mph41%30.07 "HgN/A
9:20 AM72 °FPassing clouds.5 mph47%30.07 "HgN/A
8:50 AM70 °FSunny.2 mph53%30.07 "Hg10 mi
8:20 AM66 °FSunny.2 mph56%30.07 "Hg10 mi
7:50 AM64 °FPassing clouds.5 mph60%30.07 "HgN/A
7:20 AM61 °FSunny.2 mph68%30.07 "Hg10 mi
6:50 AM59 °FSunny.3 mph72%30.04 "Hg10 mi
6:20 AM57 °FClear.3 mph77%30.04 "Hg10 mi
5:50 AM57 °FClear.3 mph77%30.04 "Hg10 mi
5:20 AM57 °FClear.3 mph77%30.04 "Hg10 mi
Weather by CustomWeather, © 2015

See weather overviewHow to use our weather pages